Location: الشقيري
(17.1356°N, 42.8272°E)
Time: 18:56:00
(UTC+00:00)

N. Korean satellite - Pass Details

Date: 18 November 2019
Orbit: 456 x 506 km, 97.2° (Epoch: 06 December)

Event Time Altitude Azimuth Distance (km) Brightness Sun altitude
Rises 01:58:53 0° 37° (NE) 2,577 10.5 -18.1°
Reaches altitude 10° 02:01:44 10° 62° (ENE) 1,684 9.9 -17.4°
Maximum altitude 02:03:49 15° 97° (E) 1,404 10.0 -17.0°
Drops below altitude 10° 02:05:54 10° 133° (SE) 1,666 10.2 -16.5°
Sets 02:08:40 0° 157° (SSE) 2,531 10.8 -15.8°
